KUIPER-00084

Last updated on Sat Aug 16 2025 00:02:06 GMT+0000 (Coordinated Universal Time)

1 64830U 25151Q 25227.58336806 -.01326767 00000+0 -70725-1 0 9997 2 64830 51.8870 142.5864 0007557 237.7698 189.2509 15.17970326 4377
UTC large
Height (km)
Speed (km/s)
/
Latitude / Longitude
Inclination (degrees)
Orbital Period (minutes)
Azimuth
Elevation
Range (km)
Doppler Factor

Next 0 passes for location: London (51.5072 / 0.1276)

Sorry there are no passes over London.